Regional Weather Roundup
Issued by NWS Jackson, KY

Home | Current Version | Previous Version | Graphics & Text | Print | Product List | Glossary On
Versions: 1 2 3 4 5 6 7 8 9 10 11 12 13 14 15 16 17 18 19 20 21 22 23 24 25 26 27 28 29 30 31 32 33 34 35 36 37 38 39 40 41 42 43 44 45 46 47 48 49 50
000
ASUS43 KJKL 241510
RWRJKL

EAST KENTUCKY HOURLY WEATHER ROUNDUP
NATIONAL WEATHER SERVICE JACKSON KY
1100 AM EDT MON APR 24 2017

NOTE: "FAIR" INDICATES FEW OR NO CLOUDS BELOW 12,000 FEET WITH
NO SIGNIFICANT WEATHER AND/OR OBSTRUCTIONS TO VISIBILITY.

* THESE REPORTS ARE NOT UNDER NWS QUALITY CONTROL AND MAY NOT
  REPORT WEATHER SUCH AS PRECIPITATION AND FOG.

KYZ079-080-083-085-087-088-110-112-115-119-120-241600
...EASTERN KENTUCKY...

CITY           SKY/WX    TMP DP  RH WIND       PRES   REMARKS
JACKSON        CLOUDY    53  48  83 CALM      29.89R
LONDON         CLOUDY    54  48  80 N10       29.86R
SOMERSET*      CLOUDY    54  50  87 E9        29.87S
WILLIAMSBURG*  CLOUDY    55  54  94 N8        29.85S
MIDDLESBORO*   MOSUNNY   61  53  73 CALM      29.83S
HARLAN APT*    SUNNY     63  50  63 CALM      29.83F
PIKE CO APT*   PTSUNNY   56  51  81 E8        29.88S
BIG SANDY APT* CLOUDY    59  52  77 E7        29.89S
MOREHEAD APT*  CLOUDY    63  48  59 NE7G16    29.90F
ASHLAND*       CLOUDY    59  48  67 SE6       29.90S
$$

KYZ035-036-041-042-044-050-067-078-099-241600
...CENTRAL KENTUCKY...

CITY           SKY/WX    TMP DP  RH WIND       PRES   REMARKS
MT STERLING*   MOSUNNY   61  50  67 E16       29.89S
DANVILLE*      MOSUNNY   61  50  67 E8        29.87F
LEXINGTON      CLOUDY    65  50  58 NE17      29.87F
FRANKFORT      CLOUDY    62  44  51 NE13      29.86F
LOUISVILLE     MOSUNNY   67  47  48 NE10      29.88F
GLASGOW*       PTSUNNY   59  51  75 NE6       29.86F
BOWLING GREEN  MOSUNNY   63  54  72 E7        29.86F
$$

KYZ091>093-OHZ055-061-077-WVZ005-015-034-035-042-241600
...SOUTHERN OHIO/WEST VIRGINIA...

CITY           SKY/WX    TMP DP  RH WIND       PRES   REMARKS
COVINGTON      MOSUNNY   62  40  44 NE13      29.92F
COLUMBUS       MOSUNNY   66  42  41 NE14      29.95F
DAYTON         MOSUNNY   63  34  33 E16       29.95F
WILMINGTON     SUNNY     61  45  55 NE10      29.93F
HUNTINGTON     CLOUDY    60  50  69 E7        29.90S
CHARLESTON     CLOUDY    57  49  74 NE6       29.92R
PINEVILLE*     CLOUDY    55  49  78 MISG      29.95S
BECKLEY        CLOUDY    49  45  86 VRB3      29.94R
BLUEFIELD      CLOUDY    48  45  89 E9        29.92R
$$

VAZ002-007-008-TNZ017-027-036-066-071-241600
...SOUTHWEST VIRGINIA/EAST TENNESSEE...

CITY           SKY/WX    TMP DP  RH WIND       PRES   REMARKS
WISE*          CLOUDY    52  52 100 N6        29.88S
JONESVILLE*      N/A     63  50  63 E10       29.85S
ABINGDON*      CLOUDY    57  51  79 E14       29.86S
BRISTOL        MOSUNNY   61  51  70 NE8       29.83F
MORRISTOWN*    MOSUNNY   61  52  72 E8        29.81S
SEVIERVILLE*   PTSUNNY   55  50  82 CALM      29.81S
KNOXVILLE      PTSUNNY   58  51  78 VRB5      29.81R
LAFOLLETTE*    PTSUNNY   61  52  72 VRB3      29.85F
OAK RIDGE      CLOUDY    61  51  70 VRB5      29.83S
CROSSVILLE     CLOUDY    54  50  86 NE3       29.83R
NASHVILLE      CLOUDY    58  53  84 N8        29.87R
$$

...KEY TO REMARKS...
VSB - VISIBILITY IN MILES
WCI - WIND CHILL INDEX
HX  - HEAT INDEX

$$



USA.gov is the U.S. government's official web portal to all federal, state and local government web resources and services.